www.pogodaiklimat.ru
ПОГОДА в Фениксе
Время
и дата
03:15 08.08
03:35 08.08
03:55 08.08
04:15 08.08
04:35 08.08
04:47 08.08
05:47 08.08
06:50 08.08
07:47 08.08
08:50 08.08
09:50 08.08
09:59 08.08
10:50 08.08
11:47 08.08
12:50 08.08
13:50 08.08
14:50 08.08
15:55 08.08
16:55 08.08
17:50 08.08
18:50 08.08
19:57 08.08
20:55 08.08
21:50 08.08
22:55 08.08
23:47 08.08
00:15 09.08
00:35 09.08
00:55 09.08
01:15 09.08
01:35 09.08
01:55 09.08
02:10 09.08
02:35 09.08
02:55 09.08
03:15 09.08
03:35 09.08
03:55 09.08
04:15 09.08
04:35 09.08
04:55 09.08
05:50 09.08
06:50 09.08
07:50 09.08
08:47 09.08
09:55 09.08
10:50 09.08
11:50 09.08
Ветер
(напр.,м/с)
Видим. Явления Облачность Т
(С)
Тd
(С)
f
(%)
Тe
(С)
Тes
(С)
Комфортность P
(гПа)
Po
(гПа)
Тmin
(С)
Tmax
(С)
R
(мм)
R24
(мм)
S
(см)
ЮВ 2 16 км ясно +29.4 +18.3 51 +34 +34 очень
душно
964.8
ЮВ 2 16 км ясно +29.3 +18.2 51 +34 +34 очень
душно
965.1
ЮВ 1 16 км ясно +29.1 +18.1 52 +34 +34 очень
душно
965.1
ЮВ 1 16 км ясно +29.1 +17.7 50 +33 +33 очень
душно
965.4
ЮВ 2 16 км ясно +28.9 +16.8 48 +33 +33 очень
душно
965.4
ЮВ 2 16 км ясно +29.0 +16.0 45 +32 +32 душно 965.4
Ю 2 16 км 8/0 3000 м
[Ac]
+29.0 +17.0 48 +33 +33 очень
душно
965.8
ЮВ 1 16 км 8/0 3000 м
[Ac]
+29.0 +17.0 48 +33 +33 очень
душно
966.4
Ю 2 16 км ясно +30.0 +18.0 49 +35 +35 очень
душно
966.7
ЮВ 2 16 км 5/0 4500 м
[Ac]
+32.0 +17.0 41 +36 +38 очень
душно
966.7
ЮЗ 1 16 км ясно +33.0 +16.0 36 +36 +45 очень
душно
966.7
ЮВ 1 16 км ясно +33.0 +16.0 36 +36 +43 очень
душно
966.4
ЮВ 1 16 км ясно +34.0 +17.0 36 +37 +49 очень
душно
966.1
З 1 16 км ясно +35.0 +17.0 34 +38 +56 опасность
солнечного
удара
965.4
ЮЗ 2 16 км ясно +36.0 +17.0 33 +39 +53 опасность
солнечного
удара
964.8
СЗ 1 16 км ясно +37.0 +17.0 31 +40 +56 опасность
солнечного
удара
963.8
С 1
{4}
16 км ясно +37.0 +16.0 29 +39 +54 опасность
солнечного
удара
962.5
СЗ 1 16 км 5/0 3600 м
[Ac]
+38.0 +15.0 26 +39 +47 очень
душно
961.6
ЮЗ 2 16 км 5/0 3600 м
[Ac]
+38.0 +15.0 26 +39 +43 очень
душно
961.3
ЮЗ 1 16 км ясно +38.0 +16.0 27 +40 +43 очень
душно
961.3
СЗ 2 16 км ясно +38.0 +16.0 27 +40 +41 очень
душно
961.3
З 2 16 км 5/0 3600 м
[Ac]
+37.0 +16.0 29 +39 +39 очень
душно
961.9
ЮЗ 2 16 км 8/0 3000 м
[Ac]
+35.0 +18.0 37 +39 +39 очень
душно
962.9
З 2 16 км 8/0 3000 м
[Ac]
+35.0 +18.0 37 +39 +39 очень
душно
963.5
З 2 16 км 8/0 3000 м
[Ac]
+34.0 +18.0 39 +38 +38 очень
душно
963.5
З 1 16 км 8/0 3000 м
[Ac]
+34.0 +18.0 39 +38 +38 очень
душно
963.8
ЮВ 6
{8}
2 км мгла 8/5 150 м
[Ac]
+33.2 +18.3 41 +38 +38 очень
душно
965.1
ЮВ 6 3 км мгла 10/10 150 м +30.0 +18.1 49 +35 +35 очень
душно
965.8
ЮВ 6 800 м гроза, мгла 10/10 150 м +27.5 +19.6 62
ЮВ 4 11 км гроза 10/10 1950 м +26.4 +19.6 66
ЮВ 5
{6}
16 км гроза 8/5 1950 м
[Ac]
+24.9 +19.6 72
ЮВ 4 16 км гроза со слабым дождем 8/5 1020 м
[Ac]
+23.4 +20.5 84
В 2 16 км 8/5 1500 м
[Ac]
+23.3 +20.8 86
В 1 11 км гроза с дождем, дымка 10/0 3000 м
[Ac]
+23.0 +20.8 87 +30 +30 очень
душно
966.1
ЮЗ 1 16 км слабый дождь 8/0 3000 м
[Ac]
+23.2 +20.6 85 +31 +31 очень
душно
966.1
штиль 0 16 км слабый дождь 5/0 3300 м
[Ac]
+23.3 +20.9 86 +31 +31 очень
душно
965.8
штиль 0 16 км ясно +23.5 +20.7 84 +29 +29 душно 965.4
С 1 16 км ясно +23.7 +20.9 84 +30 +30 очень
душно
965.4
С 1 16 км ясно +24.0 +21.2 84 +30 +30 очень
душно
965.8
СВ 1 16 км ясно +24.2 +21.5 85 +31 +31 очень
душно
965.8
ЮВ 1 16 км 8/0 3000 м
[Ac]
+24.0 +22.0 89 +31 +31 очень
душно
965.8
Ю 1 16 км 8/0 3000 м
[Ac]
+24.0 +22.0 89 +31 +31 очень
душно
965.4
Ю 1 16 км 8/0 3000 м
[Ac]
+25.0 +21.0 78 +31 +31 очень
душно
966.1
штиль 0 16 км 8/0 3000 м
[Ac]
+26.0 +20.0 70 +32 +33 очень
душно
966.7
нст 1 0 м ливневые осадки 8/0 3000 м
[Ac]
+27.0 +21.0 70 +34 +36 очень
душно
967.1
С 1 16 км 8/0 3000 м
[Ac]
+27.0 +21.0 70 +34 +38 очень
душно
967.4
С 1 16 км 8/0 3000 м
[Ac]
+30.0 +19.0 52 +35 +42 очень
душно
967.1
штиль 0 16 км ясно +32.0 +17.0 41 +36 +60 опасность
солнечного
удара
966.1
Местоположение метеостанции Phoenix Mesa Gateway Airport: широта 33.3200 долгота -111.6500 высота над уровнем моря 421 м.
В архиве по умолчанию представлена погода в Фениксе за последние 1-2 суток. Обновление информации о фактической погоде в базе происходит ежечасно! Архивные данные за месяц целиком и за предыдущие месяцы Вы можете получить, выбрав интересующий диапазон дат из раскрывающегося списка и нажав кнопку "Ввод!".
Внимание! Архив погоды МЕТАР в базе сайта по станциям, не включенным в климатический монитор, хранится не более 60 дней. Нет смысла пытаться выбрать более раннюю дату.
*Определитесь, кто Вы:
Внимание! Время в таблицах - местное (без учета летнего времени). Для получения всемирного времени необходимо вычесть поправку, которая равна -7 ч.
Смотрите также архив погоды в соседних городах и на ближайших метеорологических станциях:
Партнеры нашего сайта:      
Пояснения к столбцам:
  • Ветер - указаны скорость ветра в м/с - средняя за 10 мин, порывы в срок и между сроками (в фигурных скобках) и направление, откуда дует ветер: С - северный,
  • СВ - северо-восточный, В - восточный, ЮВ - юго-восточный, Ю - южный, ЮЗ - юго-западный, З - западный, СЗ - северо-западный.
  • Видимость - горизонтальная дальность видимости в метрах или километрах. При видимости от 1 до 10 км при отсутствии осадков обычно наблюдается дымка, при ухудшении видимости до 1 км и менее - туман. В сухую погоду видимость может ухудшаться дымом, пылью или мглою.
  • Явления - указаны атмосферные явления, наблюдавшиеся в срок или в последний час перед сроком; фигурными скобками обозначены явления, наблюдавшиеся между сроками (за 1-3 часа до срока); квадратными скобками обозначены град или гололедные отложения с указанием их диаметра в мм.
  • Облачность - указаны через наклонную черту общая и нижняя облачность в баллах и высота нижней границы облаков в метрах; квадратными скобками обозначены формы облаков: Ci - перистые, Cs - перисто-слоистые, Cc - перисто-кучевые, Ac - высококучевые, As - высокослоистые, Sc - слоисто-кучевые, Ns - слоисто-дождевые, Cu - кучевые, Cb - кучево-дождевые. Подробнее классификацию облаков см. в Атласе облаков (PDF).
  • T - Температура воздуха - температура, измеренная на высоте 2 м над землей.
  • Td - Температура точки росы - температура, при понижении до которой содержащийся в воздухе водяной пар достигнет насыщения.
  • f - Относительная влажность воздуха - влажноcть воздуха, измеренная на высоте 2 м над землей.
  • Te - Эффективная температура - температура, которую ощущает одетый по сезону человек в тени. Характеристика душности погоды. При расчете учитывается влияние влажности воздуха и скорости ветра на теплоощущения человека.
  • Tes - Эффективная температура на солнце - температура, которую ощущает человек, с поправкой на солнечный нагрев. Характеристика знойности погоды. Зависит от высоты солнца над горизонтом, облачности и скорости ветра. Ночью, в пасмурную погоду, а также при ветре 12 м/с и более поправка равна нулю.
  • P - Атмосферное давление - приведенное к уровню моря атмосферное давление.
  • Po - Атмосферное давление - измеренное на уровне метеостанции атмосферное давление.
  • Tmin - Минимальная температура - минимум температуры воздуха на высоте 2 м над землей.
  • Tmax - Максимальная температура - максимум температуры воздуха на высоте 2 м над землей.
  • R - Количество осадков - Количество выпавших осадков за период времени, мм. При наведении курсора мыши на число - период времени, за который выпало указанное количество осадков.
  • R24 - Количество осадков - Количество выпавших осадков за 24 часа, мм.
  • S - Снежный покров - Высота снежного покрова, см. При наведении курсора мыши на число - состояние снежного покрова и степень покрытия местности в баллах.